Orbital Elements at Epoch 2459000.5 (2020-May-31.0) TDB
Reference: JPL 33 (heliocentric ecliptic J2000)
Element | Value | Uncertainty (1-sigma) | Units |
e | .1786544112095353 | 3.8785e-08 | |
a | 2.6604851136987 | 1.3893e-08 | au |
q | 2.185177712179125 | 1.039e-07 | au |
i | 9.866009552362103 | 4.2585e-06 | deg |
node | 260.8929528590143 | 2.1781e-05 | deg |
peri | 21.70758286172674 | 2.4187e-05 | deg |
M | 229.859307331693 | 1.2652e-05 | deg |
tp | 2459573.494284364398 (2021-Dec-24.99428436) | 5.7858e-05 | TDB |
period | 1585.037993434762 4.34 | 1.2415e-05 3.399e-08 | d yr |
n | .227123893238599 | 1.779e-09 | deg/d |
Q | 3.135792515218274 | 1.6375e-08 | au |
|
| | Orbit Determination Parameters
Additional Information
|